| time (UTC) | temp F | wind direction | speed MPH | gust MPH | rain 1hr in | rain 24hr in | rain mn in | humidity % | barometer mb |
| 20260503012402 | 86 | 69 | 2.0 | 6.0 | 0.00 | 0.00 | 0.00 | 17 | 1010.4 |
| 20260503011902 | 86 | 212 | 0.0 | 3.0 | 0.00 | 0.00 | 0.00 | 17 | 1010.5 |
| 20260503011402 | 86 | 215 | 1.0 | 3.0 | 0.00 | 0.00 | 0.00 | 17 | 1010.5 |
| 20260503010403 | 87 | 238 | 1.0 | 3.0 | 0.00 | 0.00 | 0.00 | 17 | 1010.7 |
| 20260503005902 | 87 | 116 | 0.0 | 1.0 | 0.00 | 0.00 | 0.00 | 17 | 1010.7 |
| 20260503005402 | 87 | 97 | 0.0 | 3.0 | 0.00 | 0.00 | 0.00 | 17 | 1010.7 |
| 20260503004903 | 87 | 108 | 1.0 | 3.0 | 0.00 | 0.00 | 0.00 | 16 | 1010.6 |
| 20260503003902 | 87 | 16 | 0.0 | 7.0 | 0.00 | 0.00 | 0.00 | 16 | 1010.5 |
| 20260503003403 | 87 | 22 | 1.0 | 7.0 | 0.00 | 0.00 | 0.00 | 16 | 1010.4 |
| 20260503002903 | 87 | 46 | 2.0 | 7.0 | 0.00 | 0.00 | 0.00 | 16 | 1010.6 |
| 20260503002402 | 87 | 62 | 2.0 | 3.0 | 0.00 | 0.00 | 0.00 | 15 | 1010.5 |
| 20260503001902 | 87 | 274 | 1.0 | 2.0 | 0.00 | 0.00 | 0.00 | 15 | 1010.6 |
| 20260503001403 | 87 | 264 | 1.0 | 3.0 | 0.00 | 0.00 | 0.00 | 15 | 1010.6 |
| 20260503000903 | 87 | 78 | 2.0 | 3.0 | 0.00 | 0.00 | 0.00 | 14 | 1010.7 |
| 20260503000403 | 88 | 32 | 2.0 | 3.0 | 0.00 | 0.00 | 0.00 | 13 | 1010.6 |
| 20260502235903 | 88 | 127 | 1.0 | 6.0 | 0.00 | 0.00 | 0.00 | 15 | 1010.6 |
| 20260502235402 | 88 | 162 | 2.0 | 6.0 | 0.00 | 0.00 | 0.00 | 15 | 1010.6 |
| 20260502234903 | 88 | 147 | 1.0 | 6.0 | 0.00 | 0.00 | 0.00 | 15 | 1010.7 |
| 20260502234402 | 88 | 123 | 2.0 | 6.0 | 0.00 | 0.00 | 0.00 | 15 | 1010.6 |
| 20260502233402 | 89 | 209 | 0.0 | 3.0 | 0.00 | 0.00 | 0.00 | 13 | 1010.5 |
| 20260502232402 | 88 | 244 | 2.0 | 5.0 | 0.00 | 0.00 | 0.00 | 13 | 1010.6 |
| 20260502231902 | 88 | 84 | 0.0 | 6.0 | 0.00 | 0.00 | 0.00 | 13 | 1010.7 |
| 20260502231402 | 89 | 114 | 3.0 | 6.0 | 0.00 | 0.00 | 0.00 | 13 | 1010.7 |
| 20260502230903 | 89 | 105 | 1.0 | 5.0 | 0.00 | 0.00 | 0.00 | 13 | 1010.8 |
| 20260502225902 | 89 | 101 | 2.0 | 7.0 | 0.00 | 0.00 | 0.00 | 13 | 1011.1 |
| 20260502225402 | 89 | 351 | 1.0 | 7.0 | 0.00 | 0.00 | 0.00 | 13 | 1011.1 |
| 20260502224902 | 89 | 63 | 2.0 | 7.0 | 0.00 | 0.00 | 0.00 | 12 | 1011.0 |
| 20260502224402 | 90 | 92 | 2.0 | 7.0 | 0.00 | 0.00 | 0.00 | 12 | 1011.1 |
| 20260502223902 | 90 | 182 | 3.0 | 8.0 | 0.00 | 0.00 | 0.00 | 12 | 1011.1 |
| 20260502223402 | 90 | 208 | 4.0 | 8.0 | 0.00 | 0.00 | 0.00 | 12 | 1011.0 |
| 20260502222402 | 91 | 191 | 2.0 | 6.0 | 0.00 | 0.00 | 0.00 | 12 | 1011.2 |
| 20260502221903 | 92 | 212 | 1.0 | 7.0 | 0.00 | 0.00 | 0.00 | 11 | 1011.2 |
| 20260502221403 | 92 | 213 | 2.0 | 7.0 | 0.00 | 0.00 | 0.00 | 11 | 1011.2 |
| 20260502220903 | 90 | 4 | 1.0 | 7.0 | 0.00 | 0.00 | 0.00 | 11 | 1011.3 |
| 20260502215903 | 90 | 62 | 3.0 | 8.0 | 0.00 | 0.00 | 0.00 | 11 | 1011.6 |
| 20260502215402 | 90 | 166 | 2.0 | 7.0 | 0.00 | 0.00 | 0.00 | 12 | 1011.5 |
| 20260502214903 | 89 | 176 | 3.0 | 7.0 | 0.00 | 0.00 | 0.00 | 12 | 1011.6 |
| 20260502214403 | 90 | 213 | 1.0 | 6.0 | 0.00 | 0.00 | 0.00 | 12 | 1011.8 |
| 20260502213902 | 90 | 153 | 2.0 | 8.0 | 0.00 | 0.00 | 0.00 | 12 | 1012.0 |
| 20260502213403 | 91 | 207 | 5.0 | 8.0 | 0.00 | 0.00 | 0.00 | 12 | 1012.1 |
| 20260502212903 | 91 | 226 | 2.0 | 6.0 | 0.00 | 0.00 | 0.00 | 12 | 1012.1 |
| 20260502212403 | 92 | 63 | 2.0 | 6.0 | 0.00 | 0.00 | 0.00 | 12 | 1012.2 |
| 20260502211903 | 92 | 233 | 3.0 | 8.0 | 0.00 | 0.00 | 0.00 | 12 | 1012.2 |
| 20260502211403 | 91 | 233 | 2.0 | 8.0 | 0.00 | 0.00 | 0.00 | 12 | 1012.2 |
| 20260502210903 | 90 | 323 | 2.0 | 9.0 | 0.00 | 0.00 | 0.00 | 13 | 1012.3 |
| 20260502210402 | 90 | 214 | 3.0 | 9.0 | 0.00 | 0.00 | 0.00 | 13 | 1012.4 |
| 20260502205903 | 89 | 250 | 3.0 | 7.0 | 0.00 | 0.00 | 0.00 | 14 | 1012.4 |
| 20260502205402 | 90 | 67 | 3.0 | 7.0 | 0.00 | 0.00 | 0.00 | 14 | 1012.5 |
| 20260502204903 | 89 | 141 | 2.0 | 7.0 | 0.00 | 0.00 | 0.00 | 15 | 1012.6 |
| 20260502204403 | 89 | 65 | 3.0 | 10.0 | 0.00 | 0.00 | 0.00 | 15 | 1012.7 |
| 20260502203902 | 89 | 104 | 3.0 | 10.0 | 0.00 | 0.00 | 0.00 | 15 | 1012.7 |
| 20260502203403 | 89 | 194 | 2.0 | 7.0 | 0.00 | 0.00 | 0.00 | 15 | 1012.8 |
| 20260502202902 | 90 | 223 | 3.0 | 9.0 | 0.00 | 0.00 | 0.00 | 15 | 1012.8 |
| 20260502202402 | 89 | 225 | 5.0 | 9.0 | 0.00 | 0.00 | 0.00 | 15 | 1012.8 |
| 20260502201902 | 89 | 232 | 2.0 | 8.0 | 0.00 | 0.00 | 0.00 | 14 | 1013.0 |
| 20260502201402 | 88 | 133 | 2.0 | 8.0 | 0.00 | 0.00 | 0.00 | 16 | 1013.0 |
| 20260502200902 | 89 | 157 | 2.0 | 9.0 | 0.00 | 0.00 | 0.00 | 16 | 1013.1 |
| 20260502200402 | 89 | 232 | 5.0 | 13.0 | 0.00 | 0.00 | 0.00 | 16 | 1013.2 |
| 20260502195902 | 89 | 191 | 2.0 | 13.0 | 0.00 | 0.00 | 0.00 | 17 | 1013.1 |
| 20260502195403 | 89 | 199 | 3.0 | 7.0 | 0.00 | 0.00 | 0.00 | 15 | 1013.2 |
| 20260502194903 | 89 | 27 | 2.0 | 8.0 | 0.00 | 0.00 | 0.00 | 14 | 1013.3 |
| 20260502194402 | 89 | 141 | 2.0 | 8.0 | 0.00 | 0.00 | 0.00 | 14 | 1013.3 |
| 20260502193902 | 89 | 86 | 3.0 | 8.0 | 0.00 | 0.00 | 0.00 | 17 | 1013.4 |
| 20260502193402 | 89 | 161 | 2.0 | 9.0 | 0.00 | 0.00 | 0.00 | 19 | 1013.5 |
| 20260502192902 | 88 | 67 | 1.0 | 12.0 | 0.00 | 0.00 | 0.00 | 17 | 1013.6 |
| 20260502192402 | 88 | 63 | 5.0 | 12.0 | 0.00 | 0.00 | 0.00 | 18 | 1013.5 |
| 20260502191903 | 87 | 138 | 2.0 | 6.0 | 0.00 | 0.00 | 0.00 | 19 | 1013.6 |
| 20260502191402 | 88 | 125 | 2.0 | 6.0 | 0.00 | 0.00 | 0.00 | 16 | 1013.7 |
| 20260502185903 | 87 | 99 | 2.0 | 7.0 | 0.00 | 0.00 | 0.00 | 18 | 1014.0 |
| 20260502185403 | 86 | 112 | 2.0 | 9.0 | 0.00 | 0.00 | 0.00 | 19 | 1014.0 |
| 20260502184902 | 86 | 108 | 3.0 | 9.0 | 0.00 | 0.00 | 0.00 | 17 | 1014.1 |
| 20260502184403 | 86 | 91 | 3.0 | 9.0 | 0.00 | 0.00 | 0.00 | 17 | 1014.1 |
| 20260502183902 | 86 | 147 | 3.0 | 9.0 | 0.00 | 0.00 | 0.00 | 20 | 1014.3 |
| 20260502182902 | 85 | 87 | 3.0 | 9.0 | 0.00 | 0.00 | 0.00 | 24 | 1014.4 |
| 20260502182402 | 84 | 180 | 2.0 | 9.0 | 0.00 | 0.00 | 0.00 | 24 | 1014.5 |
| 20260502181902 | 85 | 112 | 2.0 | 9.0 | 0.00 | 0.00 | 0.00 | 22 | 1014.6 |
| 20260502181402 | 85 | 131 | 3.0 | 10.0 | 0.00 | 0.00 | 0.00 | 22 | 1014.6 |
| 20260502180403 | 85 | 213 | 2.0 | 10.0 | 0.00 | 0.00 | 0.00 | 24 | 1014.8 |
| 20260502170403 | 81 | 175 | 4.0 | 12.0 | 0.00 | 0.00 | 0.00 | 28 | 1015.2 |
| 20260502163902 | 80 | 156 | 3.0 | 13.0 | 0.00 | 0.00 | 0.00 | 28 | 1015.0 |
| 20260502163402 | 80 | 165 | 4.0 | 12.0 | 0.00 | 0.00 | 0.00 | 28 | 1014.9 |
| 20260502162403 | 79 | 217 | 4.0 | 12.0 | 0.00 | 0.00 | 0.00 | 29 | 1014.8 |
| 20260502161903 | 79 | 104 | 5.0 | 14.0 | 0.00 | 0.00 | 0.00 | 28 | 1014.8 |
| 20260502160903 | 79 | 125 | 5.0 | 13.0 | 0.00 | 0.00 | 0.00 | 29 | 1014.8 |
| 20260502151902 | 75 | 16 | 1.0 | 5.0 | 0.00 | 0.00 | 0.00 | 32 | 1014.6 |
| 20260502151402 | 75 | 40 | 1.0 | 5.0 | 0.00 | 0.00 | 0.00 | 33 | 1014.6 |
| 20260502150903 | 74 | 40 | 2.0 | 5.0 | 0.00 | 0.00 | 0.00 | 33 | 1014.5 |
| 20260502150403 | 74 | 38 | 2.0 | 3.0 | 0.00 | 0.00 | 0.00 | 34 | 1014.6 |
| 20260502123403 | 61 | 115 | 0.0 | 2.0 | 0.00 | 0.00 | 0.00 | 36 | 1013.1 |
| 20260502122902 | 61 | 116 | 0.0 | 2.0 | 0.00 | 0.00 | 0.00 | 35 | 1013.1 |
| 20260502121903 | 62 | 100 | 0.0 | 3.0 | 0.00 | 0.00 | 0.00 | 35 | 1012.9 |
| 20260502121402 | 62 | 69 | 0.0 | 3.0 | 0.00 | 0.00 | 0.00 | 35 | 1012.9 |
| 20260502120903 | 62 | 110 | 1.0 | 2.0 | 0.00 | 0.00 | 0.00 | 35 | 1012.8 |
| 20260502120402 | 62 | 112 | 0.0 | 2.0 | 0.00 | 0.00 | 0.00 | 35 | 1012.8 |
| 20260502115902 | 62 | 109 | 0.0 | 1.0 | 0.00 | 0.00 | 0.00 | 34 | 1012.8 |
| 20260502115403 | 62 | 113 | 0.0 | 0.0 | 0.00 | 0.00 | 0.00 | 34 | 1012.8 |
| 20260502114902 | 62 | 109 | 0.0 | 2.0 | 0.00 | 0.00 | 0.00 | 33 | 1012.8 |
| 20260502114403 | 63 | 109 | 0.0 | 2.0 | 0.00 | 0.00 | 0.00 | 33 | 1012.8 |
| 20260502112903 | 63 | 87 | 0.0 | 2.0 | 0.00 | 0.00 | 0.00 | 32 | 1012.8 |
| 20260502112402 | 63 | 136 | 0.0 | 2.0 | 0.00 | 0.00 | 0.00 | 33 | 1012.8 |
| 20260502111902 | 63 | 86 | 0.0 | 2.0 | 0.00 | 0.00 | 0.00 | 34 | 1012.8 |
| 20260502111403 | 63 | 79 | 0.0 | 2.0 | 0.00 | 0.00 | 0.00 | 34 | 1012.7 |
| 20260502110902 | 63 | 89 | 0.0 | 2.0 | 0.00 | 0.00 | 0.00 | 33 | 1012.7 |
| 20260502110403 | 63 | 90 | 0.0 | 3.0 | 0.00 | 0.00 | 0.00 | 32 | 1012.7 |
| 20260502105903 | 63 | 117 | 0.0 | 3.0 | 0.00 | 0.00 | 0.00 | 32 | 1012.8 |
| 20260502105402 | 63 | 112 | 2.0 | 3.0 | 0.00 | 0.00 | 0.00 | 32 | 1012.7 |
| 20260502104402 | 63 | 99 | 1.0 | 3.0 | 0.00 | 0.00 | 0.00 | 32 | 1012.8 |
| 20260502103902 | 63 | 112 | 1.0 | 2.0 | 0.00 | 0.00 | 0.00 | 32 | 1012.7 |
| 20260502103402 | 63 | 182 | 0.0 | 1.0 | 0.00 | 0.00 | 0.00 | 32 | 1012.7 |
| 20260502102902 | 63 | 159 | 0.0 | 1.0 | 0.00 | 0.00 | 0.00 | 32 | 1012.6 |
| 20260502102403 | 63 | 111 | 0.0 | 1.0 | 0.00 | 0.00 | 0.00 | 32 | 1012.5 |
| 20260502101902 | 63 | 103 | 0.0 | 1.0 | 0.00 | 0.00 | 0.00 | 32 | 1012.4 |
| 20260502101402 | 63 | 103 | 0.0 | 1.0 | 0.00 | 0.00 | 0.00 | 32 | 1012.4 |
| 20260502100902 | 63 | 102 | 0.0 | 3.0 | 0.00 | 0.00 | 0.00 | 31 | 1012.4 |
| 20260502100402 | 63 | 103 | 1.0 | 3.0 | 0.00 | 0.00 | 0.00 | 31 | 1012.5 |
| 20260502091402 | 64 | 91 | 0.0 | 3.0 | 0.00 | 0.00 | 0.00 | 32 | 1012.3 |
| 20260502090903 | 64 | 55 | 1.0 | 3.0 | 0.00 | 0.00 | 0.00 | 32 | 1012.3 |
| 20260502090402 | 65 | 68 | 0.0 | 3.0 | 0.00 | 0.00 | 0.00 | 32 | 1012.3 |
| 20260502071403 | 68 | 55 | 0.0 | 2.0 | 0.00 | 0.00 | 0.00 | 29 | 1012.6 |
| 20260502070903 | 68 | 55 | 0.0 | 2.0 | 0.00 | 0.00 | 0.00 | 29 | 1012.5 |
| 20260502070403 | 68 | 55 | 0.0 | 2.0 | 0.00 | 0.00 | 0.00 | 29 | 1012.5 |
| 20260502065903 | 69 | 55 | 0.0 | 2.0 | 0.00 | 0.00 | 0.00 | 29 | 1012.5 |
| 20260502065402 | 69 | 42 | 1.0 | 3.0 | 0.00 | 0.00 | 0.00 | 29 | 1012.5 |
| 20260502064403 | 69 | 34 | 1.0 | 3.0 | 0.00 | 0.00 | 0.00 | 27 | 1012.5 |
| 20260502063902 | 69 | 45 | 1.0 | 3.0 | 0.00 | 0.00 | 0.00 | 28 | 1012.6 |
| 20260502063402 | 69 | 36 | 0.0 | 2.0 | 0.00 | 0.00 | 0.00 | 29 | 1012.5 |
| 20260502062902 | 69 | 36 | 0.0 | 2.0 | 0.00 | 0.00 | 0.00 | 28 | 1012.4 |
| 20260502062403 | 70 | 34 | 1.0 | 3.0 | 0.00 | 0.00 | 0.00 | 28 | 1012.4 |
| 20260502061903 | 70 | 42 | 1.0 | 3.0 | 0.00 | 0.00 | 0.00 | 28 | 1012.3 |
| 20260502061402 | 70 | 38 | 1.0 | 3.0 | 0.00 | 0.00 | 0.00 | 28 | 1012.3 |
| 20260502060902 | 70 | 37 | 1.0 | 3.0 | 0.00 | 0.00 | 0.00 | 28 | 1012.2 |
| 20260502060402 | 70 | 50 | 1.0 | 3.0 | 0.00 | 0.00 | 0.00 | 28 | 1012.3 |
| 20260502055902 | 70 | 32 | 1.0 | 3.0 | 0.00 | 0.00 | 0.00 | 28 | 1012.2 |
| 20260502055402 | 70 | 24 | 1.0 | 3.0 | 0.00 | 0.00 | 0.00 | 28 | 1012.2 |
| 20260502054903 | 70 | 38 | 1.0 | 2.0 | 0.00 | 0.00 | 0.00 | 28 | 1012.2 |
| 20260502054403 | 70 | 40 | 0.0 | 2.0 | 0.00 | 0.00 | 0.00 | 28 | 1012.2 |
| 20260502053903 | 71 | 54 | 0.0 | 2.0 | 0.00 | 0.00 | 0.00 | 28 | 1012.2 |
| 20260502053403 | 71 | 51 | 0.0 | 2.0 | 0.00 | 0.00 | 0.00 | 28 | 1012.1 |
| 20260502052902 | 71 | 38 | 1.0 | 2.0 | 0.00 | 0.00 | 0.00 | 28 | 1012.2 |
| 20260502052402 | 71 | 39 | 0.0 | 2.0 | 0.00 | 0.00 | 0.00 | 28 | 1012.1 |
| 20260502051903 | 71 | 47 | 1.0 | 2.0 | 0.00 | 0.00 | 0.00 | 29 | 1012.1 |
| 20260502051403 | 71 | 56 | 0.0 | 2.0 | 0.00 | 0.00 | 0.00 | 29 | 1012.0 |
| 20260502050903 | 71 | 55 | 0.0 | 2.0 | 0.00 | 0.00 | 0.00 | 31 | 1011.9 |
| 20260502050403 | 71 | 53 | 1.0 | 2.0 | 0.00 | 0.00 | 0.00 | 31 | 1012.0 |
| 20260502045903 | 71 | 31 | 0.0 | 1.0 | 0.00 | 0.00 | 0.00 | 30 | 1012.0 |
| 20260502044403 | 74 | 350 | 0.0 | 1.0 | 0.00 | 0.00 | 0.00 | 24 | 1011.8 |
| 20260502043902 | 74 | 349 | 0.0 | 1.0 | 0.00 | 0.00 | 0.00 | 23 | 1011.8 |
| 20260502042902 | 75 | 348 | 0.0 | 1.0 | 0.00 | 0.00 | 0.00 | 23 | 1011.7 |
| 20260502042402 | 75 | 351 | 0.0 | 2.0 | 0.00 | 0.00 | 0.00 | 23 | 1011.7 |
| 20260502041903 | 75 | 351 | 0.0 | 2.0 | 0.00 | 0.00 | 0.00 | 23 | 1011.6 |
| 20260502041403 | 75 | 351 | 0.0 | 2.0 | 0.00 | 0.00 | 0.00 | 23 | 1011.6 |
| 20260502040402 | 76 | 324 | 0.0 | 2.0 | 0.00 | 0.00 | 0.00 | 23 | 1011.4 |
| 20260502035904 | 76 | 355 | 0.0 | 2.0 | 0.00 | 0.00 | 0.00 | 23 | 1011.4 |
| 20260502035403 | 76 | 355 | 1.0 | 2.0 | 0.00 | 0.00 | 0.00 | 22 | 1011.3 |
| 20260502034903 | 77 | 332 | 0.0 | 3.0 | 0.00 | 0.00 | 0.00 | 22 | 1011.2 |
| 20260502034403 | 77 | 358 | 0.0 | 3.0 | 0.00 | 0.00 | 0.00 | 22 | 1011.1 |
| 20260502033902 | 77 | 336 | 1.0 | 3.0 | 0.00 | 0.00 | 0.00 | 22 | 1011.1 |
| 20260502032402 | 78 | 340 | 1.0 | 3.0 | 0.00 | 0.00 | 0.00 | 22 | 1010.8 |
| 20260502031403 | 78 | 349 | 0.0 | 3.0 | 0.00 | 0.00 | 0.00 | 22 | 1010.7 |
| 20260502030903 | 78 | 1 | 1.0 | 3.0 | 0.00 | 0.00 | 0.00 | 21 | 1010.5 |
| 20260502030403 | 79 | 0 | 1.0 | 3.0 | 0.00 | 0.00 | 0.00 | 21 | 1010.5 |
| 20260502025402 | 79 | 346 | 1.0 | 3.0 | 0.00 | 0.00 | 0.00 | 21 | 1010.3 |
| 20260502024903 | 79 | 356 | 1.0 | 3.0 | 0.00 | 0.00 | 0.00 | 21 | 1010.3 |
| 20260502024403 | 80 | 345 | 1.0 | 3.0 | 0.00 | 0.00 | 0.00 | 20 | 1010.1 |
| 20260502023902 | 80 | 347 | 1.0 | 3.0 | 0.00 | 0.00 | 0.00 | 20 | 1010.1 |
| 20260502023403 | 80 | 279 | 2.0 | 3.0 | 0.00 | 0.00 | 0.00 | 20 | 1010.1 |
| 20260502022903 | 80 | 313 | 1.0 | 3.0 | 0.00 | 0.00 | 0.00 | 20 | 1010.1 |
| 20260502021902 | 81 | 335 | 1.0 | 3.0 | 0.00 | 0.00 | 0.00 | 19 | 1009.9 |
| 20260502021403 | 81 | 327 | 1.0 | 3.0 | 0.00 | 0.00 | 0.00 | 19 | 1009.8 |
| 20260502015902 | 82 | 296 | 2.0 | 5.0 | 0.00 | 0.00 | 0.00 | 19 | 1009.6 |
| 20260502015402 | 82 | 330 | 2.0 | 5.0 | 0.00 | 0.00 | 0.00 | 19 | 1009.6 |
| 20260502014904 | 83 | 348 | 1.0 | 5.0 | 0.00 | 0.00 | 0.00 | 19 | 1009.5 |
| 20260502014403 | 83 | 264 | 1.0 | 3.0 | 0.00 | 0.00 | 0.00 | 18 | 1009.5 |
| 20260502013403 | 83 | 203 | 1.0 | 3.0 | 0.00 | 0.00 | 0.00 | 18 | 1009.5 |
| 20260502012903 | 83 | 70 | 2.0 | 5.0 | 0.00 | 0.00 | 0.00 | 18 | 1009.4 |